Owatonna, MN

2:21 AM CDT on April 28, 2017 (GMT -0500)
Owatonna Degner Regional

Weather History for KOWA - January, 2012

Change the Weather History Date:

Sunday, January 29, 2012

  Actual Average Record
Temperature  
Mean Temperature 17 °F -  
Max Temperature 24 °F 22 °F 42 °F (1988)
Min Temperature 10 °F 5 °F -29 °F (1966)
Degree Days  
Heating Degree Days 48    
Moisture  
Dew Point 12 °F    
Average Humidity 79    
Maximum Humidity 93    
Minimum Humidity 63    
Precipitation  
Precipitation 0.00 in - - ()
Sea Level Pressure  
Sea Level Pressure 30.08 in    
Wind  
Wind Speed 8 mph (WNW)    
Max Wind Speed 14 mph    
Max Gust Speed -    
Visibility 9 miles    
Events Snow    
Averages and records for this station are not official NWS values.
T = Trace of Precipitation, MM = Missing Value Source: NWS Daily Summary

Daily Weather History Graph

Daily Weather History Graph

Search for Another Location

Airport or City:

Trip Planner

Search our weather history database for the weather conditions in past years. The results will help you decide how hot, cold, wet, or windy it might be!

Date:

Astronomy

Jan. 29, 2012 Rise Set
Actual Time 7:34 AM CST 5:18 PM CST
Civil Twilight 7:03 AM CST 5:49 PM CST
Nautical Twilight 6:28 AM CST 6:24 PM CST
Astronomical Twilight 5:54 AM CST 6:58 PM CST
Moon 10:09 AM CST (1/29) No Moon Set
Length of Visible Light 10h 46m
Length of Day
9h 43m
Waxing Crescent, 37% of the Moon is Illuminated
Jan 29
Waxing Crescent
Jan 30
First Quarter
Feb 7
Full
Feb 14
Last Quarter
Feb 21
New

Hourly Weather History & Observations

Time (CST) Temp. Windchill Dew Point Humidity Pressure Visibility Wind Dir Wind Speed Gust Speed Precip Events Conditions
12:13 AM 24.8 °F 20.5 °F 23.0 °F 93% 29.91 in 4.0 mi West 3.5 mph - N/A Snow Light Snow
12:33 AM 24.8 °F 16.9 °F 23.0 °F 93% 29.91 in 10.0 mi NW 6.9 mph - N/A Snow Light Snow
12:54 AM 24.8 °F 15.3 °F 21.2 °F 86% 29.92 in 5.0 mi North 9.2 mph - N/A Snow Light Snow
1:14 AM 24.8 °F 15.3 °F 21.2 °F 86% 29.93 in 5.0 mi NNW 9.2 mph - N/A Snow Light Snow
1:34 AM 24.8 °F 16.1 °F 21.2 °F 86% 29.94 in 5.0 mi NNW 8.1 mph - N/A Snow Light Snow
1:54 AM 23.0 °F 14.7 °F 21.2 °F 93% 29.95 in 2.5 mi NW 6.9 mph - N/A Snow Light Snow
2:14 AM 23.0 °F 13.9 °F 21.2 °F 93% 29.97 in 3.0 mi NW 8.1 mph - N/A Snow Light Snow
2:34 AM 23.0 °F 13.9 °F 21.2 °F 93% 29.98 in 2.5 mi NW 8.1 mph - N/A Snow Light Snow
2:53 AM 21.2 °F 9.5 °F 19.4 °F 93% 29.99 in 10.0 mi NW 11.5 mph - N/A Snow Light Snow
3:14 AM 21.2 °F 10.1 °F 19.4 °F 93% 30.00 in 7.0 mi WNW 10.4 mph - N/A Snow Light Snow
3:33 AM 21.2 °F 8.9 °F 19.4 °F 93% 30.01 in 7.0 mi NW 12.7 mph - N/A Snow Light Snow
3:54 AM 21.2 °F 8.3 °F 19.4 °F 93% 30.01 in 4.0 mi NW 13.8 mph - N/A Snow Light Snow
4:14 AM 21.2 °F 8.9 °F 17.6 °F 86% 30.02 in 4.0 mi NW 12.7 mph - N/A Snow Light Snow
4:34 AM 19.4 °F 6.0 °F 15.8 °F 86% 30.04 in 10.0 mi NW 13.8 mph - N/A   Mostly Cloudy
4:54 AM 19.4 °F 7.9 °F 14.0 °F 80% 30.04 in 10.0 mi NW 10.4 mph - N/A   Mostly Cloudy
5:14 AM 15.8 °F 4.2 °F 12.2 °F 86% 30.04 in 10.0 mi NW 9.2 mph - N/A   Scattered Clouds
5:54 AM 15.8 °F 3.4 °F 10.4 °F 79% 30.06 in 10.0 mi WNW 10.4 mph - N/A   Clear
6:14 AM 14.0 °F 1.2 °F 8.6 °F 79% 30.07 in 10.0 mi WNW 10.4 mph - N/A   Clear
6:34 AM 10.4 °F -1.5 °F 6.8 °F 85% 30.09 in 10.0 mi WNW 8.1 mph - N/A   Clear
6:54 AM 12.2 °F -0.2 °F 8.6 °F 85% 30.10 in 10.0 mi WNW 9.2 mph - N/A   Clear
7:13 AM 12.2 °F -0.2 °F 8.6 °F 85% 30.10 in 10.0 mi WNW 9.2 mph - N/A   Clear
7:34 AM 10.4 °F -0.4 °F 6.8 °F 85% 30.11 in 10.0 mi WNW 6.9 mph - N/A   Clear
7:54 AM 10.4 °F -1.5 °F 6.8 °F 85% 30.11 in 10.0 mi WNW 8.1 mph - N/A   Clear
8:13 AM 10.4 °F -1.5 °F 6.8 °F 85% 30.12 in 10.0 mi WNW 8.1 mph - N/A   Clear
8:34 AM 12.2 °F 0.7 °F 6.8 °F 79% 30.13 in 10.0 mi WNW 8.1 mph - N/A   Clear
8:54 AM 12.2 °F 2.9 °F 6.8 °F 79% 30.13 in 10.0 mi WNW 5.8 mph - N/A   Clear
9:14 AM 12.2 °F 0.7 °F 6.8 °F 79% 30.13 in 10.0 mi WNW 8.1 mph - N/A   Clear
9:34 AM 12.2 °F -0.2 °F 6.8 °F 79% 30.14 in 10.0 mi WNW 9.2 mph - N/A   Clear
9:54 AM 12.2 °F 2.9 °F 8.6 °F 85% 30.14 in 10.0 mi WNW 5.8 mph - N/A   Clear
10:14 AM 14.0 °F 2.9 °F 8.6 °F 79% 30.15 in 10.0 mi WNW 8.1 mph - N/A   Clear
10:34 AM 15.8 °F 4.2 °F 8.6 °F 73% 30.15 in 10.0 mi WNW 9.2 mph - N/A   Clear
10:54 AM 15.8 °F 5.1 °F 8.6 °F 73% 30.16 in 10.0 mi WNW 8.1 mph - N/A   Clear
11:14 AM 15.8 °F 5.1 °F 8.6 °F 73% 30.16 in 10.0 mi WNW 8.1 mph - N/A   Clear
11:34 AM 15.8 °F 3.4 °F 6.8 °F 68% 30.16 in 10.0 mi WNW 10.4 mph - N/A   Clear
11:54 AM 17.6 °F 6.4 °F 8.6 °F 68% 30.15 in 10.0 mi WNW 9.2 mph - N/A   Clear
12:14 PM 17.6 °F 5.7 °F 8.6 °F 68% 30.15 in 10.0 mi WNW 10.4 mph - N/A   Clear
12:34 PM 17.6 °F 7.3 °F 8.6 °F 68% 30.15 in 10.0 mi West 8.1 mph - N/A   Clear
12:54 PM 17.6 °F 7.3 °F 8.6 °F 68% 30.15 in 10.0 mi West 8.1 mph - N/A   Clear
1:14 PM 17.6 °F 8.2 °F 8.6 °F 68% 30.14 in 10.0 mi West 6.9 mph - N/A   Clear
1:34 PM 17.6 °F 8.2 °F 8.6 °F 68% 30.13 in 10.0 mi West 6.9 mph - N/A   Clear
1:54 PM 19.4 °F 12.8 °F 8.6 °F 63% 30.13 in 10.0 mi West 4.6 mph - N/A   Clear
2:14 PM 19.4 °F 14.3 °F 8.6 °F 63% 30.13 in 10.0 mi WSW 3.5 mph - N/A   Clear
2:34 PM 19.4 °F 14.3 °F 10.4 °F 68% 30.12 in 10.0 mi WSW 3.5 mph - N/A   Clear
2:54 PM 19.4 °F 12.8 °F 8.6 °F 63% 30.13 in 10.0 mi West 4.6 mph - N/A   Clear
3:34 PM 17.6 °F - 8.6 °F 68% 30.12 in 10.0 mi Calm Calm - N/A   Clear
3:54 PM 17.6 °F - 8.6 °F 68% 30.12 in 10.0 mi Calm Calm - N/A   Clear
4:14 PM 15.8 °F - 6.8 °F 68% 30.11 in 10.0 mi Calm Calm - N/A   Clear
4:54 PM 15.8 °F - 8.6 °F 73% 30.11 in 10.0 mi Calm Calm - N/A   Clear
5:34 PM 15.8 °F 10.2 °F 8.6 °F 73% 30.10 in 10.0 mi South 3.5 mph - N/A   Clear
5:54 PM 17.6 °F 12.3 °F 10.4 °F 73% 30.10 in 10.0 mi South 3.5 mph - N/A   Clear
6:14 PM 15.8 °F 8.6 °F 10.4 °F 79% 30.09 in 10.0 mi SSE 4.6 mph - N/A   Scattered Clouds
6:34 PM 17.6 °F 9.3 °F 10.4 °F 73% 30.09 in 10.0 mi SSE 5.8 mph - N/A   Scattered Clouds
6:54 PM 17.6 °F 9.3 °F 10.4 °F 73% 30.08 in 10.0 mi SSE 5.8 mph - N/A   Mostly Cloudy
7:14 PM 17.6 °F 9.3 °F 12.2 °F 79% 30.07 in 10.0 mi SSE 5.8 mph - N/A   Overcast
7:34 PM 19.4 °F 10.4 °F 12.2 °F 74% 30.07 in 10.0 mi SSE 6.9 mph - N/A   Overcast
7:54 PM 19.4 °F 9.5 °F 12.2 °F 74% 30.06 in 10.0 mi SSE 8.1 mph - N/A   Overcast
8:14 PM 19.4 °F 8.6 °F 12.2 °F 74% 30.05 in 10.0 mi SSE 9.2 mph - N/A   Overcast
8:34 PM 19.4 °F 9.5 °F 14.0 °F 80% 30.05 in 10.0 mi SSE 8.1 mph - N/A   Overcast
8:54 PM 19.4 °F 9.5 °F 14.0 °F 80% 30.05 in 10.0 mi SSE 8.1 mph - N/A   Overcast
9:14 PM 21.2 °F 10.1 °F 15.8 °F 80% 30.04 in 10.0 mi SE 10.4 mph - N/A   Overcast
9:34 PM 21.2 °F 9.5 °F 15.8 °F 80% 30.02 in 10.0 mi SE 11.5 mph - N/A   Overcast
10:14 PM 21.2 °F 8.9 °F 15.8 °F 80% 29.99 in 10.0 mi SE 12.7 mph - N/A   Overcast
10:34 PM 21.2 °F 8.3 °F 15.8 °F 80% 29.98 in 10.0 mi SE 13.8 mph - N/A   Overcast
10:54 PM 21.2 °F 7.8 °F 15.8 °F 80% 29.96 in 10.0 mi SE 15.0 mph - N/A   Overcast
11:34 PM 23.0 °F 8.7 °F 17.6 °F 80% 29.92 in 10.0 mi SE 18.4 mph 21.9 mph N/A   Overcast
11:54 PM 24.8 °F 11.9 °F 17.6 °F 74% 29.92 in 10.0 mi SE 16.1 mph 21.9 mph N/A   Overcast